Regional Weather Roundup
Issued by NWS Grand Forks, ND

Home | Current Version | Previous Version | Text Only | Print | Product List | Glossary On
Versions: 1 2 3 4 5 6 7 8 9 10 11 12 13 14 15 16 17 18 19 20 21 22 23 24 25 26 27 28 29 30 31 32 33 34 35 36 37 38 39 40 41 42 43 44 45 46 47 48 49 50
000
ASUS43 KFGF 190010
RWRFGF
PRAIRIE TO PINES  WEATHER ROUNDUP
NATIONAL WEATHER SERVICE EASTERN NORTH DAKOTA/GRAND FORKS ND
600 PM CST THU JAN 18 2018

 **SATELLITE DATA USED TO AUGMENT SKY COVER AT AUTOMATED STATIONS**
 *****  WEATHER ACROSS EASTERN NORTH DAKOTA  *****

CITY           SKY/WX    TMP DP  RH WIND       PRES   REMARKS
GRAND FORKS    MOCLDY    25  21  85 S13       29.66F WCI  14
6HR MIN TEMP:  25; 6HR MAX TEMP:  28;

GRAND FRKS AFB FAIR      24  19  80 S6        29.65F WCI  17
GRAND FRKS NWS   N/A     25 N/A N/A S9          N/A  WCI  15
DEVILS LAKE    FAIR      30  24  78 SW14      29.62S WCI  19
6HR MIN TEMP:  23; 6HR MAX TEMP:  31;

FARGO          FAIR      29  23  78 S7        29.70F WCI  22
WAHPETON ARPT  FAIR      30  27  86 CALM      29.74F
$$

 ***** WEATHER ACROSS CENTRAL AND WESTERN NORTH DAKOTA  *****

CITY           SKY/WX    TMP DP  RH WIND       PRES   REMARKS
BISMARCK       FAIR      30  25  81 SE3       29.68F
6HR MIN TEMP:  26; 6HR MAX TEMP:  40;

MINOT          FAIR      39  28  64 SW14      29.58S
6HR MIN TEMP:  36; 6HR MAX TEMP:  41;

JAMESTOWN      FAIR      32  25  75 S9        29.66F WCI  24
6HR MIN TEMP:  31; 6HR MAX TEMP:  36;

MINOT AFB      FAIR      38  29  70 W15       29.56S
GARRISON         N/A     29  25  85 SW6       29.63F WCI  23
WILLISTON      FAIR      37  28  70 SW13      29.64F
6HR MIN TEMP:  30; 6HR MAX TEMP:  38;

DICKINSON      FAIR      37  29  72 SW6       29.65F
6HR MIN TEMP:  36; 6HR MAX TEMP:  42;

HETTINGER      FAIR      37  28  70 W8        29.73S
6HR MIN TEMP:  36; 6HR MAX TEMP:  43;

$$

 *****  OTHER AIRPORT OBSERVATIONS IN OUR AREA  *****

CITY           SKY/WX    TMP DP  RH WIND       PRES   REMARKS
WALHALLA       FAIR      27  21  80 S5        29.59F WCI  21
GRAFTON AIRPOR FAIR      25  21  86 S12       29.65F WCI  14
VALLEY CITY AR FAIR      27  27 100 S8        29.69F WCI  18
CANDO          FAIR      27  25  93 S5        29.61F WCI  21
CAVALIER APRT    N/A     27  23  86 S12       29.60F WCI  16
GWINNER          N/A     30  27  86 SW12      29.71F WCI  21
SHEYENNE NWR     N/A     28  26  94 SW2       29.95S
ROLLA          FAIR      30  23  74 SW20      29.55F WCI  18
 ***** THE ABOVE OBSERVATIONS ARE NON NWS ARE NOT QUALITY
       CONTROLLED AND MAY MIS-REPORT RAIN FOR SNOW...
$$

  *****  WEATHER ACROSS NORTHERN MINNESOTA  *****

CITY           SKY/WX    TMP DP  RH WIND       PRES   REMARKS
FLAG ISLAND    CLOUDY    25  21  86 SW8       29.65S WCI  16
WARROAD        CLOUDY    25  21  86 CALM      29.66S
ROSEAU         FAIR      25  19  80 S5        29.66R WCI  19
HALLOCK        FAIR      23  19  86 S14       29.63F WCI  11
THF RVR FALLS  FAIR      21  17  84 S8        29.67F WCI  11
6HR MIN TEMP:  20; 6HR MAX TEMP:  31;

BAUDETTE       CLOUDY    27  23  85 S3        29.65F
6HR MIN TEMP:  25; 6HR MAX TEMP:  28;

WASKISH        CLOUDY    28  27  93 SW6       29.68F WCI  22
CROOKSTON      FAIR      23  19  86 S9        29.69F WCI  13
STEPHEN NDAWN    N/A     23  18  80 S13         N/A  WCI  11
GREENBUSH NDAW   N/A     23  18  80 S12         N/A  WCI  12
$$
  *****  WEATHER ACROSS CENTRAL AND WEST MINNESOTA  *****

CITY           SKY/WX    TMP DP  RH WIND       PRES   REMARKS
FOSSTON        FAIR      19  16  86 S9        29.70F WCI   9
BEMIDJI        FAIR      23  22  93 S5        29.68F WCI  17
6HR MIN TEMP:  23; 6HR MAX TEMP:  32;

PARK RAPIDS    FAIR      23  18  81 S5        29.69F WCI  17
6HR MIN TEMP:  23; 6HR MAX TEMP:  35;

ELBOW LAKE     FAIR      28  24  88 CALM      29.74F
6HR MIN TEMP:  28; 6HR MAX TEMP:  36;

WADENA         FAIR      25  19  80 CALM      29.72F
DETROIT LAKES  FAIR      27  21  80 S3        29.71F
MOORHEAD       FAIR      27  21  80 S8        29.72F WCI  18
FERGUS FALLS   FAIR      28  25  86 S3        29.73F
MORRIS MN      FAIR      36  27  69 SE3       29.74S
STAPLES        FAIR      25  19  80 CALM      29.72F
$$
  *****  WEATHER ELSEWHERE ACROSS MINNESOTA  *****

CITY           SKY/WX    TMP DP  RH WIND       PRES   REMARKS
DULUTH         FAIR      26  23  88 NW3       29.71R
6HR MIN TEMP:  26; 6HR MAX TEMP:  35;

INTRNTL FALLS  CLOUDY    27  21  78 SW5       29.67F WCI  22
6HR MIN TEMP:  27; 6HR MAX TEMP:  29;

ELY            CLOUDY    28  23  80 W6        29.69R WCI  22
CLOQUET        FAIR      30  25  80 CALM      29.72S
WHEATON        NOT AVBL
BRAINERD       FAIR      26  21  81 CALM      29.73F
6HR MIN TEMP:  26; 6HR MAX TEMP:  37;

HIBBING        CLOUDY    26  24  92 CALM      29.70F
6HR MIN TEMP:  26; 6HR MAX TEMP:  31;

ALEXANDRIA     FAIR      29  23  78 SW3       29.74F
6HR MIN TEMP:  29; 6HR MAX TEMP:  38;

SAINT CLOUD    FAIR      30  23  75 SW3       29.76S
6HR MIN TEMP:  29; 6HR MAX TEMP:  39;

MINNEAPOLIS    CLOUDY    38  28  67 S5        29.78F
6HR MIN TEMP:  35; 6HR MAX TEMP:  41;

$$

  *****  WEATHER ACROSS SOUTH DAKOTA  *****

CITY           SKY/WX    TMP DP  RH WIND       PRES   REMARKS
SIOUX FALLS    CLOUDY    36  29  75 SW5       29.82F
6HR MIN TEMP:  34; 6HR MAX TEMP:  40;

BROOKINGS      FAIR      33  28  81 S8        29.78F
WATERTOWN      FAIR      32  27  81 CALM      29.75F
6HR MIN TEMP:  29; 6HR MAX TEMP:  39;

HURON          FAIR      34  30  85 S7        29.78S
6HR MIN TEMP:  33; 6HR MAX TEMP:  40;

SISSETON         N/A     35  25  66 VRB3      29.73F
ABERDEEN       FAIR      32  27  81 S6        29.75S
6HR MIN TEMP:  31; 6HR MAX TEMP:  41;

MITCHELL       FAIR      37  31  78 S6        29.80F
PIERRE         FAIR      33  26  75 SE6       29.76F
6HR MIN TEMP:  33; 6HR MAX TEMP:  44;

MOBRIDGE       FAIR      35  27  72 SE8       29.70F
RAPID CITY     FAIR      45  26  47 VRB3      29.75F
6HR MIN TEMP:  44; 6HR MAX TEMP:  71;

$$

  *****  SOME WEATHER IN NEARBY STATES *****

CITY           SKY/WX    TMP DP  RH WIND       PRES   REMARKS
GLASGOW MT     CLOUDY    33  26  75 CALM      29.64F
6HR MIN TEMP:  27; 6HR MAX TEMP:  34;

GREAT FALLS MT CLOUDY    43  31  62 SW14      29.69S
6HR MIN TEMP:  42; 6HR MAX TEMP:  50;

CHEYENNE WY    FAIR      47  20  34 W10       29.98S
6HR MIN TEMP:  47; 6HR MAX TEMP:  59;

SCOTTSBLUFF NE FAIR      47  31  53 NW9       29.88F
6HR MIN TEMP:  43; 6HR MAX TEMP:  52;

OMAHA NE       MOCLDY    31  22  69 S12       29.95R WCI  22
6HR MIN TEMP:  31; 6HR MAX TEMP:  36;

DES MOINES IA  MOCLDY    34  21  59 SW14      29.95S WCI  25
6HR MIN TEMP:  31; 6HR MAX TEMP:  38;

DAVENPORT IA   FAIR      33  20  58 SW16      30.02R WCI  23
6HR MIN TEMP:  29; 6HR MAX TEMP:  36;

CHICAGO IL     FAIR      31  20  63 SW16      30.00R WCI  20
6HR MIN TEMP:  26; 6HR MAX TEMP:  32;

EAU CLAIRE WI  FAIR      32  23  69 SW6       29.79R
6HR MIN TEMP:  32; 6HR MAX TEMP:  37; 6HR PCP: TRACE;

LA CROSSE WI   FAIR      32  22  66 S6        29.87S
6HR MIN TEMP:  31; 6HR MAX TEMP:  36;

$$

  *****  SOME NATIONAL WEATHER *****

CITY           SKY/WX    TMP DP  RH WIND       PRES   REMARKS
LA GUARDIA NY  FAIR      30  13  49 NW13      30.02R WCI  20
6HR MIN TEMP:  30; 6HR MAX TEMP:  33;

RALEIGH NC     FAIR      25  20  81 SW8       30.21S WCI  16
6HR MIN TEMP:  25; 6HR MAX TEMP:  34;

ATLANTA GA     FAIR      35  14  42 NW9       30.33F
6HR MIN TEMP:  34; 6HR MAX TEMP:  41;

NEW ORLEANS LA FAIR      39  18  42 CALM      30.43F
6HR MIN TEMP:  35; 6HR MAX TEMP:  43;

OKLAHOMA CITY  FAIR      41  11  29 S12       30.17F
6HR MIN TEMP:  41; 6HR MAX TEMP:  50;

ALBUQUERQUE NM FAIR      51   9  18 S5        30.17F
6HR MIN TEMP:  37; 6HR MAX TEMP:  52;

SALT LAKE CITY CLOUDY    49  36  61 SE5       29.99F
6HR MIN TEMP:  48; 6HR M



USA.gov is the U.S. government's official web portal to all federal, state and local government web resources and services.